Jaipur / Sanganer, India

3:21 PM IST on December 06, 2016 (GMT +0530)
Jaipur

Weather History for VIJP - August, 2014

Change the Weather History Date:

Saturday, August 30, 2014

  Actual Average Record
Temperature  
Mean Temperature 84 °F -  
Max Temperature 94 °F - - ()
Min Temperature 75 °F - - ()
Cooling Degree Days 20    
Growing Degree Days 34 (Base 50)    
Moisture  
Dew Point 74 °F    
Average Humidity 81    
Maximum Humidity 97    
Minimum Humidity 36    
Precipitation  
Precipitation 0.39 in - - ()
Sea Level Pressure  
Sea Level Pressure 29.67 in    
Wind  
Wind Speed 4 mph ()    
Max Wind Speed 10 mph    
Max Gust Speed -    
Visibility 1.6 miles    
Events Rain    
T = Trace of Precipitation, MM = Missing Value Source: Averaged Metar Reports

Daily Weather History Graph

Daily Weather History Graph

Search for Another Location

Airport or City:

Trip Planner

Search our weather history database for the weather conditions in past years. The results will help you decide how hot, cold, wet, or windy it might be!

Date:

Astronomy

Aug. 30, 2014 Rise Set
Actual Time 6:05 AM IST 6:49 PM IST
Civil Twilight 5:41 AM IST 7:12 PM IST
Nautical Twilight 5:13 AM IST 7:40 PM IST
Astronomical Twilight 4:45 AM IST 8:09 PM IST
Moon 9:58 AM IST (8/30) 9:35 PM IST (8/30)
Length of Visible Light 13h 31m
Length of Day
12h 44m
Waxing Crescent, 19% of the Moon is Illuminated
Aug 30
Waxing Crescent
Sep 2
First Quarter
Sep 9
Full
Sep 16
Last Quarter
Sep 24
New

Hourly Weather History & Observations

Time (IST) Temp. Heat Index Dew Point Humidity Pressure Visibility Wind Dir Wind Speed Gust Speed Precip Events Conditions
12:00 AM 84.2 °F 92.3 °F 75.2 °F 74% 29.71 in 1.9 mi East 4.6 mph - N/A   Haze
1:00 AM 84.2 °F 92.3 °F 75.2 °F 74% 29.71 in 1.9 mi ENE 3.5 mph - N/A   Haze
2:00 AM 82.4 °F 89.5 °F 75.2 °F 79% 29.71 in 1.9 mi East 4.6 mph - N/A   Haze
2:30 AM 82 °F - 75 °F 73% 29.62 in 1 mi East 3.5 mph - -   Haze
3:00 AM 82.4 °F 89.5 °F 75.2 °F 79% 29.71 in 1.9 mi Variable 2.3 mph - N/A   Haze
4:00 AM 82.4 °F 89.5 °F 75.2 °F 79% 29.71 in 1.9 mi Variable 2.3 mph - N/A   Haze
5:00 AM 82.4 °F 89.5 °F 75.2 °F 79% 29.71 in 1.9 mi Calm Calm - N/A   Haze
5:30 AM 81 °F - 73 °F 72% 29.63 in 1 mi NE 2.3 mph - -   Haze
6:00 AM 82.4 °F 88.2 °F 73.4 °F 74% 29.71 in 1.9 mi Calm Calm - N/A   Haze
8:00 AM 84.2 °F 92.3 °F 75.2 °F 74% 29.71 in 1.9 mi ENE 5.8 mph - N/A   Haze
8:30 AM 88 °F - 73 °F 53% 29.65 in 1 mi East 4.6 mph - -   Haze
9:00 AM 87.8 °F 97.6 °F 75.2 °F 66% 29.74 in 1.9 mi East 8.1 mph - N/A   Haze
10:00 AM 80.6 °F 86.2 °F 75.2 °F 84% 29.74 in 1.9 mi South 6.9 mph - N/A Rain Light Rain
11:00 AM 77.0 °F - 75.2 °F 94% 29.74 in 1.6 mi ESE 10.4 mph - N/A Rain Rain
11:30 AM 76 °F - 75 °F 97% 29.68 in 1 mi East 9.2 mph - - Rain Light Rain
12:00 PM 77.0 °F - 75.2 °F 94% 29.74 in 1.6 mi ENE 5.8 mph - N/A Rain Rain
1:00 PM 75.2 °F - 73.4 °F 94% 29.71 in 1.6 mi NE 8.1 mph - N/A Rain Rain
2:00 PM 75.2 °F - 73.4 °F 94% 29.71 in 1.6 mi NE 8.1 mph - N/A Rain Rain
2:30 PM 75 °F - 74 °F 94% 29.64 in 1 mi NE 3.5 mph - - Rain Light Drizzle
3:00 PM 77.0 °F - 73.4 °F 89% 29.65 in 1.6 mi NE 8.1 mph - N/A   Drizzle
4:00 PM 77.0 °F - 73.4 °F 89% 29.65 in 1.6 mi Variable 2.3 mph - N/A   Light Drizzle
5:00 PM 78.8 °F - 73.4 °F 83% 29.62 in 1.9 mi NE 4.6 mph - N/A   Haze
5:30 PM 79 °F - 74 °F 79% 29.57 in 1 mi ENE 2.3 mph - -   Haze
6:00 PM 78.8 °F - 73.4 °F 83% 29.62 in 1.9 mi Variable 1.2 mph - N/A   Haze
7:00 PM 78.8 °F - 73.4 °F 83% 29.62 in 1.9 mi Variable 1.2 mph - N/A   Haze
8:00 PM 78.8 °F - 75.2 °F 89% 29.62 in 1.9 mi Calm Calm - N/A   Haze
8:30 PM 94 °F - 70 °F 36% 29.51 in 2 mi ESE 5.8 mph - -   Scattered Clouds
9:00 PM 77.0 °F - 73.4 °F 89% 29.65 in 1.9 mi Calm Calm - N/A   Scattered Clouds
10:00 PM 78.8 °F - 75.2 °F 89% 29.65 in 1.9 mi Variable 1.2 mph - N/A   Mostly Cloudy
11:00 PM 78.8 °F - 75.2 °F 89% 29.65 in 1.9 mi Calm Calm - N/A   Mostly Cloudy
11:30 PM 78 °F - 74 °F 86% 29.60 in 1 mi Calm Calm - -   Mist